Location: *
(44.9308°N, 123.0197°W)
Time: 04:39:37
(UTC+00:00)

PAYLOAD A - Pass Details

Date: 09 April 2020
Orbit: 691 x 833 km, 98.3° (Epoch: 24 May)

Event Time Altitude Azimuth Distance (km) Brightness Sun altitude
Rises 12:46:00 0° 9° (N) 3,381 7.8 -9.5°
Reaches altitude 10° 12:48:25 10° 6° (N) 2,434 7.0 -9.1°
Maximum altitude 12:53:42 57° 289° (WNW) 952 4.3 -8.2°
Drops below altitude 10° 12:58:48 10° 212° (SSW) 2,349 6.1 -7.4°
Sets 13:01:06 0° 208° (SSW) 3,253 6.8 -7.0°
